SCP
5 5 5 7 8 7 4 3 3 2 2 2 2 1 1 1 1 1 1 1 1 1 1 1 1 1 1 1 1 1 1 1 1 1 0 0 0 0 0 0 0 0 0
5 4 4 5 6 5 4 4 4 3 3 2 2 1 1 1 1 1 1 1 1 1 1 1 1 1 1 1 1 1 1 1 1 0 0 0 0 0 0 0 0 0 0
3 3 3 3 4 4 5 5 5 5 4 3 2 2 2 2 2 2 2 1 1 1 1 1 1 1 1 1 1 1 1 1 1 0 0 0 0 0 0 0 0 0 0
2 2 2 3 4 4 5 6 7 6 5 4 3 3 2 2 2 2 2 2 2 2 1 1 1 1 1 1 1 1 1 1 1 1 0 0 0 0 0 0 0 0 0
2 2 3 4 4 4 5 7 7 7 6 5 4 3 3 2 2 2 2 2 2 2 2 1 1 1 1 0 0 1 1 1 1 1 0 0 0 0 0 0 0 0 0
3 3 3 4 4 5 6 7 7 7 6 5 4 3 3 2 2 2 2 2 2 1 1 1 1 1 0 0 0 0 1 1 1 1 0 0 0 0 0 0 0 0 0
3 3 4 4 4 5 7 8 8 7 6 4 3 3 2 2 1 1 2 2 2 2 1 1 0 0 0 0 0 0 1 1 1 1 0 0 0 0 0 0 0 0 0
3 3 4 4 4 5 7 8 8 7 5 4 3 2 1 1 1 1 1 2 2 1 1 0 0 0 0 0 0 0 0 1 1 1 0 0 0 0 0 0 0 0 0
3 3 4 4 4 5 6 8 8 7 5 3 2 1 1 0 0 0 1 1 1 1 0 0 0 0 0 0 0 0 0 0 0 0 0 0 0 0 0 0 0 0 0
3 3 3 4 4 4 6 7 7 5 3 2 1 0 0 0 0 0 0 1 1 0 0 0 0 0 0 0 0 0 0 0 0 0 0 0 0 0 0 0 0 0 0
2 2 3 3 4 4 5 6 5 4 2 1 0 0 0 0 0 0 0 0 0 0 0 0 0 0 0 0 0 0 0 0 0 0 0 0 0 0 0 0 0 0 0
1 2 3 3 4 5 5 5 4 2 1 0 0 0 0 0 0 0 0 0 0 0 0 0 0 0 0 0 0 0 0 0 0 0 0 0 0 0 0 0 0 0 0
2 2 3 4 4 5 4 4 3 1 0 0 0 0 0 0 0 0 0 0 0 0 0 0 0 0 0 0 0 0 0 0 0 0 0 0 0 0 0 0 0 0 0
2 3 3 3 4 3 3 2 1 0 0 0 0 0 0 0 0 0 0 0 0 0 0 0 0 0 0 0 0 0 0 0 0 0 0 0 0 0 0 0 0 0 0
3 3 2 2 2 2 1 1 0 0 0 0 0 0 0 0 0 0 0 0 0 0 0 0 0 0 0 0 0 0 0 0 0 0 0 0 0 0 0 0 0 0 0
2 2 1 1 1 1 1 0 0 0 0 0 0 0 0 0 0 0 0 0 0 0 0 0 0 0 0 0 0 0 0 0 0 0 0 0 0 0 0 0 0 0 0
1 1 0 0 0 0 0 0 0 0 0 0 0 0 0 0 0 0 0 0 0 0 0 0 0 0 0 0 0 0 0 0 0 0 0 0 0 0 0 0 0 0 0
0 0 0 0 0 0 0 0 0 0 0 0 0 0 0 0 0 0 0 0 0 0 0 0 0 0 0 0 0 0 0 0 0 0 0 0 0 0 0 0 0 0 0
0 0 0 0 0 0 0 0 0 0 0 0 0 0 0 0 0 0 0 0 0 0 0 0 0 0 0 0 0 0 0 0 0 0 0 0 0 0 0 0 0 0 0
0 0 0 0 0 0 0 0 0 0 0 0 0 0 0 0 0 0 0 0 0 0 0 0 0 0 0 0 0 0 0 0 0 0 0 0 0 0 0 0 0 0 0
0 0 0 0 0 0 0 0 0 0 0 0 0 0 0 0 0 0 0 0 0 0 0 0 0 0 0 0 0 0 0 0 0 0 0 0 0 0 0 0 0 0 0
0 0 0 0 0 0 0 0 0 0 0 0 0 0 0 0 0 0 0 0 0 0 0 0 0 0 0 0 0 0 0 0 0 0 0 0 0 0 0 0 0 0 0
0 0 0 0 0 0 0 0 0 0 0 0 0 0 0 0 0 0 0 0 0 0 0 0 0 0 0 0 0 0 0 0 0 0 0 0 0 0 0 0 0 0 0
0 0 0 0 0 0 0 0 0 0 0 0 0 0 0 0 0 0 0 0 0 0 0 0 0 0 0 0 0 0 0 0 0 0 0 0 0 0 0 0 0 0 0
0 0 0 0 0 0 0 0 0 0 0 0 0 0 0 0 0 0 0 0 0 0 0 0 0 0 0 0 0 0 0 0 0 0 0 0 0 0 0 0 0 0 0
0 0 0 0 0 0 0 0 0 0 0 0 0 0 0 0 0 0 0 0 0 0 0 0 0 0 0 0 0 0 0 0 0 0 0 0 0 0 0 0 0 0 0
Wind_Speed
6 6 7 6 6 5 5 4 4 3 2 2 2 2 2 1 1 2 2 3 2 2 2 2 2 2 1 2 2 1 2 1 1 2 2 3 3 3 2 2 2 3 3
7 7 6 5 5 4 4 4 3 3 2 2 1 2 2 1 1 2 3 3 3 3 2 2 2 2 2 2 2 1 1 1 1 1 1 2 3 4 4 3 3 3 3
10 9 7 5 5 4 4 3 3 3 3 3 3 3 3 2 3 3 2 2 3 3 3 3 2 2 2 2 2 1 1 1 1 0 1 1 1 1 2 3 3 3 3
9 8 8 6 6 4 4 3 3 3 3 3 4 4 3 2 1 1 1 2 3 3 3 2 2 2 2 2 2 2 1 0 1 1 0 1 2 1 1 2 3 3 4
11 10 8 7 6 5 4 3 3 4 4 3 4 4 3 2 1 2 3 3 3 3 3 3 2 2 2 2 2 2 2 1 1 1 0 0 0 1 1 1 2 2 3
10 9 8 8 6 4 4 4 4 4 3 4 4 4 4 3 3 3 2 2 2 3 4 3 2 2 2 2 2 2 3 2 1 0 0 1 1 1 1 1 1 1 2
10 9 9 8 6 6 5 4 4 3 3 4 3 4 4 3 3 2 2 1 2 2 3 3 3 2 3 3 3 3 3 3 2 1 1 0 1 1 1 1 1 1 1
8 8 8 6 6 6 5 5 4 3 2 3 3 3 3 2 2 2 1 1 0 1 2 3 3 3 4 4 3 2 3 3 2 2 1 1 1 0 1 2 2 1 1
7 7 6 5 6 5 5 5 5 3 3 3 3 3 3 3 2 2 2 1 1 1 3 3 4 4 4 4 3 3 3 2 2 2 2 1 1 1 0 1 2 2 1
6 5 6 6 5 5 4 4 4 4 3 3 2 3 2 2 2 2 2 2 2 2 3 3 3 4 4 4 3 3 3 3 2 2 2 2 2 1 1 1 1 1 2
7 6 5 5 5 5 4 4 4 4 3 3 3 3 2 3 3 2 2 2 2 2 3 3 3 3 4 3 3 3 3 3 3 3 2 3 2 2 1 0 0 1 1
6 6 6 5 5 5 4 4 3 4 3 3 3 3 3 3 3 2 2 2 2 2 2 3 3 3 3 3 3 3 3 3 3 3 3 3 2 2 1 1 0 0 1
6 6 6 5 5 5 4 3 3 3 3 4 4 3 3 3 2 2 2 2 2 3 3 3 3 3 3 3 3 3 3 3 3 3 3 3 3 3 2 1 0 1 1
7 6 5 4 4 4 3 3 3 3 4 4 4 3 2 2 1 2 2 3 3 3 3 3 3 3 3 3 3 3 3 3 3 3 2 2 2 2 2 1 1 2 2
7 6 6 4 4 3 2 2 3 4 4 4 3 2 1 1 2 2 2 3 3 4 3 3 4 3 3 3 3 3 3 3 3 3 3 3 3 4 2 1 1 2 2
7 7 6 6 5 4 3 3 3 3 4 3 2 2 2 2 2 2 2 3 3 3 3 3 3 4 3 5 5 3 2 2 2 3 4 4 4 5 4 4 3 3 3
7 7 7 6 5 4 4 4 4 4 4 3 2 2 2 2 1 2 2 2 2 2 2 2 2 3 4 6 6 5 2 2 2 2 3 3 4 4 3 4 5 4 3
7 6 6 5 4 3 3 4 4 4 4 3 2 2 2 2 1 2 1 1 1 1 1 2 3 3 4 6 6 5 3 2 2 2 2 2 3 4 3 4 4 4 3
7 6 6 5 5 4 4 4 4 3 3 3 3 2 2 2 1 1 0 1 0 1 1 1 2 3 4 6 5 4 2 2 3 3 2 2 3 4 5 4 4 4 3
6 6 5 5 5 4 5 5 4 3 3 3 3 2 2 2 2 1 1 1 0 1 1 2 2 2 3 5 5 3 2 2 2 3 3 3 3 3 4 3 3 3 2
7 7 7 5 5 4 5 5 4 3 3 3 3 2 2 2 2 1 1 1 1 1 1 2 3 2 3 3 4 3 1 1 1 2 2 2 3 4 3 1 1 1 1
7 7 6 5 4 5 6 5 3 3 3 3 2 2 1 1 1 1 1 0 0 1 2 2 3 3 3 2 3 3 2 1 1 1 2 3 5 5 5 2 2 2 1
7 6 7 6 4 4 5 5 3 3 3 3 2 1 1 0 0 1 0 0 0 0 1 1 2 3 3 3 3 3 3 3 1 1 3 5 6 5 3 3 3 2 1
7 6 7 6 5 4 4 4 4 4 4 3 2 1 1 1 1 0 1 1 1 1 1 1 2 2 2 2 2 2 2 3 2 2 4 6 5 3 3 3 3 1 1
5 6 6 7 6 5 4 4 4 4 3 2 2 2 1 1 1 1 1 2 3 4 3 3 2 2 2 4 3 1 1 1 1 2 2 3 3 3 3 2 2 2 1
6 6 6 6 6 5 4 4 4 5 4 2 2 2 1 1 1 1 2 4 4 6 6 6 5 4 6 6 5 4 3 3 3 1 2 2 2 2 2 2 2 1 1
Wind_Direction
141 124 114 114 105 90 84 83 80 70 77 91 98 99 89 65 52 59 52 45 41 44 50 25 9 5 18 354 347 347 356 340 11 34 3 0 14 32 33 34 34 23 20
139 131 121 115 104 99 90 78 76 76 70 85 111 119 116 94 72 44 41 39 39 32 43 36 18 6 12 6 360 4 360 337 21 68 35 350 357 14 19 25 35 22 14
153 144 137 127 115 107 102 95 82 77 68 67 79 77 64 47 31 28 28 23 35 37 34 33 31 16 25 5 349 1 28 319 326 50 137 135 260 329 353 16 25 18 19
148 147 145 138 136 129 114 100 88 74 67 76 90 95 97 85 40 18 32 21 28 29 26 26 28 28 24 8 346 11 352 338 313 324 347 185 174 174 319 342 2 13 20
155 154 152 144 138 135 124 108 94 77 69 77 97 100 87 77 50 47 48 30 15 16 17 22 23 22 18 3 356 2 4 358 269 249 288 346 347 173 171 265 333 1 4
154 150 145 135 132 135 120 104 98 83 78 79 85 97 97 87 72 58 48 23 6 2 5 13 13 10 9 3 357 360 7 357 341 285 207 189 203 217 176 209 284 319 335
151 150 147 144 142 136 127 122 110 93 82 83 81 91 100 100 99 98 81 49 15 354 348 2 4 2 2 8 13 12 4 358 8 7 337 282 233 203 180 170 226 284 306
148 148 146 143 143 141 136 126 119 109 89 86 78 74 82 89 91 91 92 77 35 325 344 8 14 12 17 21 22 17 2 10 14 17 12 354 304 229 181 176 176 224 310
142 140 139 140 142 141 142 137 133 118 100 94 88 75 73 80 77 63 52 42 21 353 8 20 21 14 18 19 20 21 1 6 9 3 358 348 322 311 240 190 180 175 210
130 132 136 144 149 149 142 132 130 126 116 103 93 87 80 84 78 64 45 34 22 13 16 20 18 11 14 16 18 10 0 15 358 354 3 353 333 335 332 212 217 186 178
141 139 137 141 140 134 130 131 129 121 115 109 93 82 70 67 60 48 36 36 23 18 28 22 22 19 16 10 15 12 9 13 359 356 4 350 345 346 330 334 137 159 158
135 133 134 133 130 134 136 139 136 129 127 118 102 89 75 68 58 38 19 30 23 15 27 28 30 23 21 13 16 12 11 9 7 357 1 349 357 352 340 341 214 180 177
134 131 132 138 142 145 144 146 143 136 129 119 109 93 79 75 61 31 18 24 27 22 26 33 26 15 14 15 7 12 10 7 4 1 5 349 2 355 355 1 71 123 112
145 145 142 144 146 145 145 145 145 140 136 126 116 108 99 91 65 41 39 35 44 42 32 27 21 16 15 11 1 11 15 10 7 5 0 350 4 4 14 33 84 116 108
153 155 152 151 148 146 147 143 139 135 132 126 119 123 112 89 63 52 46 41 40 40 33 32 17 5 8 4 0 3 15 7 9 5 1 7 17 19 24 76 121 125 119
163 160 157 155 157 157 152 140 133 130 123 124 127 132 105 81 73 66 55 43 33 27 30 29 14 2 0 2 10 17 18 11 11 3 356 1 10 9 23 47 71 115 136
159 159 159 160 162 163 153 148 147 135 124 125 128 128 113 91 92 90 64 46 26 30 17 6 10 358 351 5 12 21 34 26 7 7 0 3 6 4 23 42 49 54 75
156 154 152 153 157 154 146 145 142 138 139 139 141 143 131 121 105 90 65 13 357 16 355 347 352 356 353 7 11 17 31 22 10 10 9 18 9 13 34 57 55 43 37
154 153 153 150 146 148 147 134 133 130 131 144 153 159 152 138 123 117 312 320 359 349 326 315 341 352 340 357 11 21 24 23 9 4 16 40 38 30 51 66 58 38 19
144 146 143 135 141 152 142 131 133 133 153 164 163 162 152 149 170 202 242 301 331 276 307 323 328 335 327 338 4 25 40 22 3 2 6 23 32 33 47 73 74 48 358
147 146 144 145 156 151 136 136 143 168 185 162 147 144 152 174 198 209 227 250 296 326 328 328 321 320 311 324 349 15 59 45 10 1 347 338 352 358 6 49 95 240 296
145 146 144 147 149 140 135 140 166 186 161 143 139 150 177 201 176 178 254 308 349 349 328 337 327 320 319 325 334 0 21 79 82 341 320 318 330 332 333 341 320 321 359
146 146 145 143 144 146 145 155 182 164 145 138 147 177 203 247 154 167 211 329 336 334 317 334 313 309 322 332 347 2 12 32 63 299 304 317 325 326 323 319 327 353 52
147 147 144 146 158 166 163 171 172 158 147 153 175 190 193 276 314 289 206 193 222 239 280 283 280 291 310 318 327 338 355 10 10 341 325 325 328 335 314 321 341 356 190
148 148 150 158 171 174 174 181 172 155 154 169 186 193 203 225 271 290 258 231 235 214 208 221 218 218 261 264 252 265 305 321 325 336 348 356 351 347 339 331 316 315 324
148 148 155 163 172 174 180 189 178 164 161 176 198 205 212 229 233 264 307 291 258 257 237 228 220 234 240 247 254 263 279 298 318 14 332 321 312 296 292 296 304 301 268